Theta_e
298 298 298 298 298 298 298 298 299 299 299 298 298 299 299 299 299 298 300 303 303 304 306 308 309 313 314 318 325 324 329 327 328 326 324 325 325 326 329 332 335 333 331 331 337 338 337 353 347 350 354 351 349 350
296 297 299 297 298 298 298 297 298 298 298 298 298 299 299 298 298 298 301 300 300 301 304 304 304 306 308 310 311 323 325 325 331 332 329 330 330 336 341 342 342 345 345 348 344 348 347 345 351 349 349 348 347 345
297 296 296 296 297 296 297 297 298 297 298 298 298 298 298 298 298 298 298 299 301 304 307 307 310 311 310 309 309 312 324 324 327 325 328 328 336 330 340 340 341 337 340 345 344 343 344 342 341 342 345 345 343 341
297 297 296 297 296 296 297 297 297 297 297 297 298 298 298 298 298 298 298 300 301 303 308 313 312 313 312 313 312 312 316 316 319 324 325 323 327 328 331 336 334 334 338 338 340 340 339 337 341 340 339 340 338 337
297 297 296 296 297 297 297 297 298 298 298 298 298 298 298 298 298 298 299 301 301 303 307 308 307 312 312 313 313 314 315 318 318 322 320 325 327 327 327 326 331 331 336 338 339 341 336 341 337 337 336 337 335 335
298 296 297 295 297 297 298 298 298 298 298 298 298 298 298 298 299 300 307 304 303 303 305 310 310 314 314 314 313 315 316 318 319 320 321 322 326 326 326 326 333 334 336 336 336 336 339 337 335 335 335 333 334 333
297 297 296 295 296 297 296 297 297 297 298 297 296 297 298 299 300 304 307 306 304 305 306 309 315 317 315 315 314 315 315 317 318 318 320 322 323 324 324 324 324 326 330 333 331 330 334 334 335 335 333 333 332 332
296 296 296 295 296 297 297 297 296 296 295 295 297 299 302 302 298 303 306 304 303 306 307 311 316 319 316 317 319 316 316 317 319 319 320 320 321 324 324 323 322 326 326 327 328 329 331 328 330 335 332 331 330 329
296 296 296 295 296 296 296 296 295 294 294 297 299 303 304 305 308 309 307 304 304 307 311 315 316 319 317 318 320 321 321 319 318 319 318 319 321 325 324 323 324 324 323 326 325 330 330 327 330 332 331 330 329 328
296 296 296 296 296 297 296 295 294 293 300 301 303 306 310 310 309 307 307 309 310 309 309 311 313 315 316 317 321 323 322 321 320 319 317 317 317 318 321 322 324 324 323 324 326 329 327 325 326 327 330 330 327 327
296 296 296 296 296 297 296 295 294 297 303 303 306 308 307 306 307 310 313 313 315 314 313 313 314 317 317 319 320 320 322 323 322 321 320 321 319 319 318 321 321 324 324 323 324 325 329 324 323 323 328 329 327 327
296 296 296 297 296 296 295 295 294 298 299 298 299 302 305 309 312 313 316 316 315 318 316 316 319 319 318 319 321 322 322 322 322 322 322 321 322 321 323 321 321 324 323 323 323 322 328 326 326 327 329 327 326 327
296 296 296 297 296 295 295 295 295 295 298 303 304 307 309 313 309 314 316 317 319 319 319 319 321 320 321 320 319 323 324 323 322 324 323 327 326 326 326 328 324 321 323 323 320 320 321 331 331 329 328 325 326 324
297 296 295 296 295 295 295 296 296 297 300 307 308 304 309 311 310 313 316 316 316 316 317 316 317 321 321 323 322 320 322 324 327 327 327 327 326 326 325 326 329 326 321 320 320 320 323 329 329 328 327 325 322 319
297 296 295 295 294 296 296 296 295 299 303 308 307 308 309 310 312 311 312 313 315 314 314 315 317 321 322 322 323 322 322 324 326 326 325 325 325 322 323 324 325 323 328 326 320 328 329 329 328 327 325 323 320 315
297 297 296 295 296 297 296 297 299 301 305 305 306 307 310 312 311 312 313 313 313 313 314 319 317 316 317 319 322 323 324 326 322 323 322 323 323 324 324 325 323 316 318 328 328 327 325 322 321 319 318 318 317 316
297 298 299 298 296 296 296 298 304 305 304 305 307 309 308 310 312 311 311 312 313 313 318 316 315 316 315 320 323 325 324 321 320 320 321 322 322 323 323 325 325 324 324 323 323 321 319 318 317 317 316 316 316 316
298 298 298 296 296 300 302 301 304 303 304 305 305 308 309 311 313 315 314 315 315 317 317 316 314 317 319 321 322 320 317 317 317 317 317 319 321 323 324 323 322 321 320 319 317 318 317 316 314 314 313 313 313 313
299 299 298 296 299 300 304 302 302 304 305 306 307 308 310 313 313 311 311 312 313 312 313 314 316 318 319 318 316 315 315 315 316 315 316 318 322 322 320 318 317 317 316 315 314 313 313 312 312 313 313 313 313 313
299 298 296 296 298 303 302 304 302 303 305 308 310 312 312 311 310 309 309 310 311 312 312 313 316 315 313 313 314 314 314 313 314 316 318 317 316 316 315 314 314 313 313 312 312 312 312 312 313 313 312 313 313 314
298 298 296 297 301 302 302 304 305 306 307 307 310 308 308 306 308 310 312 312 314 314 314 314 312 311 312 312 311 312 313 316 320 319 317 316 314 313 313 313 313 313 313 313 313 313 313 313 313 313 313 313 313 312
299 297 300 301 302 302 302 303 305 306 306 308 307 305 306 308 310 311 310 311 312 309 310 310 312 311 311 311 312 314 317 316 315 314 314 314 314 314 313 313 313 314 314 314 314 313 314 314 312 312 312 313 314 315
299 300 302 301 302 299 300 304 306 307 307 307 305 307 309 310 309 309 308 305 306 307 309 310 310 310 311 312 313 314 315 316 315 315 315 314 314 314 314 315 314 314 312 311 311 312 313 314 315 316 316 315 315 315
299 301 302 304 303 303 304 307 306 305 304 305 306 309 309 310 307 305 304 304 304 308 310 309 309 312 313 313 313 313 314 314 314 314 313 313 312 311 312 313 314 314 312 312 312 312 313 313 313 312 312 312 312 311
299 298 302 299 303 304 306 306 305 305 306 307 310 311 310 308 306 305 304 303 306 308 309 309 311 312 314 314 313 313 313 313 313 313 312 312 312 312 312 312 313 314 314 313 312 313 313 312 312 310 309 308 308 308
301 303 304 304 305 305 306 307 305 307 308 313 313 312 310 308 308 306 304 304 306 308 310 311 311 313 312 312 313 313 313 313 313 313 313 313 313 313 313 313 312 312 313 313 313 313 313 312 310 309 308 306 304 305
306 306 305 302 303 303 303 303 304 305 312 315 313 311 309 309 308 307 306 306 307 308 309 311 312 313 313 312 313 313 314 314 313 313 313 314 314 315 315 315 315 314 314 314 313 313 312 311 309 308 306 306 306 305
303 301 303 303 303 302 305 309 313 315 315 312 311 312 311 309 310 308 309 308 308 308 309 309 307 310 311 311 313 314 314 313 313 313 312 312 312 312 311 312 310 310 312 313 312 312 310 309 308 307 306 306 306 305
301 301 301 306 309 309 313 314 312 311 311 310 311 310 311 309 308 309 309 309 310 311 310 308 308 308 308 309 308 308 308 308 308 309 309 308 308 308 308 308 308 309 307 308 308 308 308 305 304 305 306 306 306 306
311 306 311 313 313 313 313 312 311 311 311 312 312 313 312 311 311 310 310 311 311 311 310 309 308 308 308 308 308 308 308 308 308 308 309 309 308 307 307 306 306 305 305 305 305 305 304 305 305 305 306 306 306 306
314 313 313 313 313 312 312 312 311 311 312 312 312 312 312 312 311 310 311 311 311 310 310 310 310 310 310 310 309 309 309 309 308 308 308 308 308 308 307 307 307 307 307 307 307 307 307 308 308 308 308 308 308 308
313 314 314 314 313 312 312 312 312 312 312 313 312 312 313 313 312 312 311 311 311 311 310 311 311 311 310 309 307 307 306 307 307 307 307 307 307 306 307 307 307 307 307 307 308 308 308 308 308 309 308 307 306 304
313 313 314 313 313 313 313 314 314 313 313 313 313 313 314 314 313 312 311 311 311 312 312 312 311 311 311 310 309 308 307 307 306 306 307 306 307 306 306 306 306 307 307 308 308 308 309 308 307 306 304 303 301 300
Wind_Speed
9 10 10 11 11 13 12 13 14 13 13 14 14 14 15 15 16 17 8 4 4 4 10 8 7 6 6 4 3 8 7 7 3 2 3 3 3 6 6 6 8 9 6 5 2 5 8 12 6 2 7 8 10 10
10 11 11 11 12 12 13 14 14 14 14 14 14 14 14 14 13 13 6 10 10 6 7 21 27 30 22 16 1 2 3 4 3 4 5 3 3 5 2 1 8 4 3 3 2 1 4 7 7 8 12 15 8 11
11 11 11 10 10 12 12 13 15 15 15 15 14 15 14 13 12 10 12 12 11 5 8 8 11 21 24 25 20 3 1 2 5 3 4 3 3 3 4 3 2 5 6 2 2 5 5 7 8 14 8 10 13 10
12 12 11 10 11 11 12 13 15 16 16 16 15 15 15 14 13 11 11 11 6 7 4 4 11 9 8 17 17 18 5 6 19 3 2 3 2 1 2 2 1 3 2 4 1 5 4 8 13 13 14 6 9 8
12 12 10 10 10 11 12 13 15 16 17 17 17 16 16 15 14 14 13 11 8 3 4 7 24 17 12 14 11 11 10 5 4 4 3 3 5 4 2 1 2 0 1 3 3 6 2 2 7 14 15 13 8 9
13 11 10 9 10 12 13 14 16 18 19 18 18 18 17 15 11 5 2 8 9 9 4 4 9 8 7 7 7 8 7 4 4 1 3 2 6 2 2 1 5 6 6 4 2 5 7 6 7 11 10 3 5 8
11 11 10 9 10 12 14 16 18 19 19 19 19 18 14 8 4 3 1 1 2 2 2 5 5 3 10 6 5 4 10 3 3 4 3 3 2 3 2 2 2 5 9 7 5 1 5 6 3 4 6 6 17 14
12 11 10 9 10 12 14 17 19 20 20 18 18 13 7 2 3 6 6 9 4 4 3 3 4 5 9 3 2 3 5 5 4 3 3 4 2 3 2 6 5 5 5 8 7 6 3 3 1 6 9 10 9 7
11 11 10 10 10 12 15 18 20 20 18 17 10 2 2 2 3 1 1 3 3 3 3 3 3 1 5 3 1 4 3 3 4 5 6 3 4 4 6 7 5 4 2 7 7 6 3 4 5 4 6 9 9 6
11 11 10 10 10 12 15 18 20 19 17 7 2 3 2 4 6 4 1 2 3 3 4 3 4 6 6 5 2 3 3 3 3 4 4 7 8 8 9 10 7 7 7 6 5 6 7 3 7 9 4 5 8 5
12 12 11 10 10 11 13 16 18 19 9 3 3 1 5 3 5 3 2 3 3 3 4 4 5 5 4 4 3 1 3 4 3 4 3 3 7 6 10 9 10 8 9 8 7 4 16 15 11 11 8 11 15 12
13 12 11 9 10 10 11 13 14 11 7 8 11 9 5 3 2 3 3 3 5 2 1 2 3 2 2 2 2 3 2 3 4 4 2 3 4 6 4 9 10 10 10 8 4 5 7 19 13 8 11 14 17 16
15 13 11 10 10 10 10 10 10 11 12 4 5 3 2 1 1 4 3 2 1 1 1 2 2 2 1 2 2 2 3 4 5 2 2 4 8 10 11 15 9 11 13 10 4 8 14 24 27 25 14 18 18 21
15 12 11 11 10 9 8 9 9 10 4 3 3 2 3 4 4 2 3 2 3 5 1 2 3 2 2 2 2 3 3 4 3 3 4 6 9 11 12 13 13 11 10 11 15 22 15 16 17 21 20 20 20 20
15 11 10 11 9 6 8 8 7 5 4 3 3 3 7 7 2 2 3 3 1 3 5 4 3 1 2 3 3 2 3 4 5 4 4 6 7 10 10 11 9 13 5 1 6 9 13 16 18 18 19 20 23 25
14 7 12 9 9 8 9 9 7 3 5 3 3 5 6 4 2 1 2 3 3 3 3 3 3 3 3 4 3 5 3 3 1 3 5 5 8 10 8 11 3 6 13 10 17 21 21 21 20 20 22 21 20 21
15 3 1 2 6 5 4 3 5 5 3 3 4 7 9 2 5 3 1 3 7 4 1 1 1 2 4 3 3 3 3 5 7 8 6 8 9 11 8 6 6 11 9 17 19 21 21 24 25 23 18 20 24 24
7 9 4 3 3 4 3 6 5 3 4 5 6 5 3 5 6 5 3 3 3 2 1 0 1 3 3 3 3 3 7 9 8 8 9 10 11 10 9 9 12 13 14 18 18 19 21 20 18 17 24 26 27 26
6 8 7 5 3 3 4 4 4 3 4 5 5 4 4 6 7 7 6 7 5 3 1 1 3 3 2 2 6 9 9 8 9 10 9 14 4 11 14 17 17 16 17 18 18 17 19 20 21 20 19 21 19 21
9 7 6 6 1 4 2 2 2 3 3 3 6 7 5 4 6 4 3 2 0 1 1 2 2 3 4 7 7 8 10 10 8 7 5 6 14 15 14 17 16 20 22 24 23 25 24 22 21 20 21 22 19 16
6 4 5 3 3 5 4 3 3 3 4 3 7 5 3 3 3 3 3 3 1 2 3 2 5 7 10 10 15 16 12 7 4 5 7 8 13 19 18 20 22 21 19 18 18 17 17 16 17 18 17 16 17 19
5 9 2 4 3 2 3 5 3 3 3 4 4 4 2 2 3 3 4 3 3 3 3 6 5 3 5 6 10 10 9 18 21 23 22 21 10 7 12 18 19 15 17 19 20 18 17 16 15 16 13 11 7 12
6 3 4 2 2 1 5 6 3 3 3 3 3 3 1 2 3 6 3 3 3 5 10 4 9 12 8 9 11 20 17 19 15 17 19 19 20 21 20 20 20 19 16 17 22 24 21 15 11 8 10 12 9 12
2 5 3 2 3 2 2 3 3 2 2 1 2 2 3 3 3 3 3 3 4 13 7 9 11 4 6 11 8 12 16 22 21 20 20 20 15 16 19 19 21 19 22 21 23 22 21 25 23 18 18 19 18 16
1 4 1 3 1 1 2 2 1 1 1 2 0 2 3 3 3 4 4 5 6 5 6 12 15 9 7 7 11 16 20 19 17 11 17 21 19 18 18 19 19 19 19 23 18 17 16 16 15 17 17 17 14 11
1 0 1 1 1 1 1 1 1 1 2 0 3 3 2 3 4 4 4 4 5 3 3 3 3 7 8 12 8 12 15 18 21 17 14 17 19 18 12 9 8 8 13 15 14 12 11 15 13 11 9 8 10 9
1 1 2 3 2 1 1 2 3 2 3 3 3 3 2 3 3 2 3 8 5 9 9 6 1 15 10 9 16 21 20 21 24 23 23 20 16 12 11 10 9 9 9 8 9 9 11 8 6 5 6 5 6 5
1 0 1 1 1 2 2 3 2 4 3 4 4 2 2 3 2 3 6 14 20 18 12 8 17 14 15 16 18 17 16 19 16 14 14 14 15 16 17 18 16 15 10 7 8 5 5 5 5 5 4 6 7 5
1 2 2 2 2 3 3 5 4 4 5 6 6 5 3 2 10 8 12 18 16 11 9 14 15 18 19 17 16 17 16 15 13 9 9 7 10 12 13 12 12 11 11 10 8 7 7 4 2 2 2 2 6 11
1 5 2 5 3 4 4 6 7 3 8 8 7 7 5 6 13 16 15 14 7 17 16 17 19 18 17 17 18 21 22 19 17 14 9 8 14 15 14 13 12 11 9 11 10 8 6 5 6 6 7 5 3 7
3 7 13 10 10 8 8 10 11 9 8 6 7 6 4 1 6 7 11 18 15 15 15 16 18 20 20 17 15 14 14 18 19 17 16 16 14 12 11 11 10 7 5 3 3 6 3 5 12 13 16 18 19 19
2 8 6 7 5 4 7 7 6 6 7 9 8 6 8 7 10 12 15 14 14 15 18 18 16 16 19 18 15 14 12 12 12 13 14 14 14 15 19 15 15 16 16 16 17 19 18 20 20 18 17 19 19 19
7 8 9 5 3 3 4 4 4 6 7 7 6 7 8 6 5 4 12 17 16 15 15 14 13 12 11 10 11 13 15 18 17 16 16 13 13 13 12 11 10 11 13 15 13 13 14 15 16 16 16 16 14 14
Wind_Direction
315 314 317 328 333 338 336 334 335 342 340 339 342 343 346 347 351 355 310 331 357 297 290 272 319 322 328 341 351 330 313 7 304 219 198 252 267 251 245 246 240 194 210 222 222 195 256 352 359 99 132 86 102 122
316 318 300 317 323 324 330 329 331 331 335 335 337 336 337 343 346 349 301 346 329 266 266 303 283 265 243 253 267 359 191 328 313 324 0 316 300 1 9 279 345 58 79 342 75 113 349 346 50 37 115 119 115 112
309 318 317 315 321 324 329 333 331 330 329 330 330 329 331 331 331 327 302 298 313 255 274 230 239 275 229 234 231 265 103 258 342 251 295 310 47 7 8 27 56 331 15 22 342 26 49 1 20 20 20 119 129 132
297 309 309 310 316 322 328 329 326 324 324 324 323 322 321 318 314 306 290 292 302 279 280 329 335 214 217 207 221 229 213 149 244 238 267 304 312 187 3 161 55 352 8 345 321 25 80 24 28 26 61 353 83 101
288 300 304 307 311 317 325 326 326 327 325 323 321 318 313 307 304 295 267 260 235 260 312 298 308 295 258 191 207 234 247 218 252 236 287 280 333 357 349 359 108 241 351 17 33 333 95 28 64 60 41 12 52 80
276 288 288 297 306 316 317 320 323 323 323 321 319 317 311 304 298 285 215 195 217 216 311 299 340 285 184 215 224 237 237 204 227 242 252 257 159 138 282 314 83 86 75 80 92 37 62 110 133 122 94 152 79 64
269 279 281 282 296 311 316 316 319 320 321 320 321 320 315 293 217 260 344 181 213 306 264 299 282 311 247 181 196 206 237 239 218 247 242 221 186 167 171 227 262 165 142 137 134 137 130 194 153 176 151 119 116 112
272 269 276 280 294 307 315 317 318 319 319 320 322 323 324 241 246 266 268 246 224 262 256 277 277 325 332 270 265 177 184 193 222 241 254 242 192 153 229 223 230 136 112 151 177 192 164 85 276 185 132 114 103 111
262 262 270 279 292 306 313 316 318 318 317 321 315 295 329 261 248 289 208 154 191 281 301 270 299 278 272 332 317 354 325 227 200 192 222 233 214 198 183 247 253 268 238 250 143 168 212 126 109 111 152 137 127 146
252 254 259 276 288 305 315 321 323 323 323 300 216 214 247 214 191 162 156 188 199 203 224 262 268 295 340 350 41 353 304 272 287 245 213 218 237 235 188 209 224 198 229 230 189 182 134 151 151 131 147 125 123 136
244 246 249 267 283 300 316 327 334 342 14 163 268 94 343 184 198 222 232 226 200 223 210 236 273 327 342 342 333 300 306 297 270 249 249 247 237 221 229 226 208 189 197 222 229 258 179 172 176 173 168 143 141 154
237 240 243 254 275 294 313 328 341 359 351 312 300 299 267 217 243 256 232 214 223 254 176 246 245 254 316 354 317 317 274 291 268 288 260 256 279 229 261 227 208 197 184 198 227 307 189 179 171 183 173 148 150 152
229 233 237 249 269 290 305 321 332 330 321 293 213 242 277 203 342 241 230 224 192 299 54 8 319 276 345 210 258 265 257 242 327 266 262 52 348 356 349 354 330 202 185 179 164 308 283 152 165 165 134 147 139 129
221 230 237 247 265 285 299 316 332 338 290 245 189 290 218 215 241 286 19 212 299 332 105 341 313 195 239 248 240 249 260 306 267 245 45 10 343 345 342 343 350 338 199 181 171 205 227 137 133 134 134 143 126 127
213 226 244 251 259 276 299 311 319 324 269 258 226 223 219 241 321 353 32 316 121 295 341 337 320 11 258 263 219 298 257 232 19 25 295 327 335 338 337 331 357 354 357 150 203 150 112 121 117 121 135 139 129 125
198 224 256 244 237 260 291 304 293 230 258 273 272 272 259 211 175 69 25 6 340 329 298 41 31 350 293 313 272 224 251 65 270 267 286 316 319 312 324 327 24 29 326 64 67 95 99 103 109 104 105 111 118 126
173 230 189 156 208 247 282 290 228 217 276 251 253 274 252 323 64 52 47 353 350 338 31 36 335 261 314 254 253 22 25 321 321 316 314 314 308 312 302 298 77 108 146 84 84 92 99 104 106 103 97 95 99 105
178 191 221 203 192 285 249 213 262 205 242 248 263 291 342 32 59 40 26 16 359 356 2 82 343 229 237 257 310 354 312 310 311 314 311 308 306 306 95 98 94 87 82 89 97 102 106 106 108 108 107 108 102 101
187 179 191 203 199 272 232 211 262 285 252 278 282 313 342 77 49 14 350 352 41 43 353 210 249 236 273 346 316 307 306 304 300 300 301 300 298 104 100 92 90 96 106 109 108 101 102 104 103 104 106 105 104 108
155 162 180 196 200 279 270 269 222 265 277 315 8 16 30 29 345 351 315 323 249 175 192 228 257 357 303 298 296 293 289 285 280 285 299 59 63 78 91 99 98 100 95 95 96 99 98 96 100 103 113 121 123 130
134 172 173 166 236 245 314 300 234 315 344 356 39 22 1 340 338 327 323 331 244 22 331 339 301 295 303 301 296 288 282 290 57 81 92 86 79 84 82 83 90 89 93 95 97 95 97 99 105 113 120 125 137 152
128 156 195 207 267 207 266 264 287 8 322 19 31 349 338 328 322 352 327 358 27 350 294 303 311 318 311 311 314 322 44 79 86 86 85 88 86 83 83 91 94 89 82 77 84 84 87 107 125 138 153 181 200 165
141 218 238 178 238 57 261 328 19 31 353 10 334 319 330 332 9 344 56 347 290 297 315 301 315 313 298 324 38 47 67 87 88 88 83 80 75 79 82 83 86 87 82 77 90 91 90 100 123 131 123 122 142 128
308 303 333 273 152 292 5 16 49 19 13 320 292 26 10 25 22 41 6 305 302 329 350 358 349 345 45 45 46 49 68 83 80 75 83 86 77 69 77 81 86 91 100 99 97 96 88 81 82 85 82 87 87 84
3 325 305 320 283 359 351 6 349 333 287 253 138 76 48 33 33 32 358 319 327 331 333 353 22 38 54 58 59 61 68 83 86 86 90 97 94 87 77 78 83 92 109 108 104 104 98 91 80 83 83 74 63 57
60 165 45 71 301 45 344 304 308 293 279 124 71 81 62 40 40 18 326 296 291 271 298 332 8 51 44 44 65 69 77 94 96 86 84 104 108 110 109 100 90 80 111 114 109 99 94 88 88 82 79 81 55 45
344 32 41 45 350 84 266 247 244 262 259 92 78 83 72 60 47 338 272 260 248 274 314 315 169 113 132 129 97 97 101 102 105 115 116 107 100 86 97 104 108 133 123 115 110 105 98 102 97 85 63 85 107 87
33 261 265 298 228 207 266 257 274 6 32 105 94 87 105 133 155 225 231 244 243 271 307 34 71 105 123 119 126 130 126 117 113 106 97 87 81 88 88 97 95 93 99 141 123 138 122 99 82 64 64 45 57 21
250 185 216 276 232 200 352 27 41 2 53 93 113 105 107 117 181 223 261 263 281 235 165 101 84 71 71 84 102 109 112 114 117 114 110 109 116 118 111 105 98 87 71 77 77 83 75 62 78 58 43 335 34 37
123 177 235 52 50 46 75 114 125 137 83 79 89 108 125 165 206 223 242 269 324 55 80 98 96 87 77 68 63 61 57 61 74 80 81 82 86 95 100 103 111 124 129 119 111 121 153 234 228 224 231 239 4 356
301 105 108 114 112 118 114 123 130 119 113 103 87 80 76 100 129 110 75 64 84 97 91 82 70 68 66 66 84 88 81 61 54 64 84 88 89 93 107 108 95 92 91 104 203 233 249 2 46 46 36 45 54 68
134 114 109 110 100 89 115 129 114 103 94 88 79 95 89 68 58 38 54 93 82 69 66 68 71 98 98 98 90 85 83 84 74 62 57 57 52 41 44 60 51 44 35 25 34 51 51 58 59 60 58 61 59 54
97 98 93 78 78 131 118 93 107 110 109 120 122 95 91 78 57 43 77 60 52 70 74 62 68 73 90 121 136 132 118 106 99 91 83 74 61 54 49 46 38 29 21 16 26 46 57 66 70 68 60 54 48 43